Hlavní strana
METAR-TAF:

METAR-TAF

Letiště :

Fairfield Municipal Airport

Fairfield, Illinois, Spojené státy americké

zeměpisná šířka: 38-22-43N, zeměpisná délka: 088-24-46W, výška: 133 m

Aktuální stav počasí

Zpráva byla vytvořena před 16 minutami, v 02:55 UTC
Bezvětří
Teplota 6°C
Vlhkost vzduchu 87%
Tlak 1029 hPa
Viditelnost: 16.1 km
Jasno

METAR: KFWC 190255Z AUTO 00000KT 10SM CLR 06/04 A3039 RMK AO1 T00550035

Čas: 22:11 (03:11 UTC)


TAF: chybějící

Stav a předpovědi počasí z více než 4 000 letišť (zprávy METAR a TAF).

Červené a žluté tečky na mapě představují dostupné meteorologické stanice.

Když kurzor umístíte na tečku, zobrazí se název stanice.

Pak kliknutím zobrazíte stav a předpověď počasí.

Chcete-li změnit mapu, kliknutím na zelené tlačítko se znaménkem +mapu přiblížíte, kliknutím na zelené tlačítko se znaménkem – mapu oddálíte a kliknutím na zelené šipky přejdete na sousední mapy.


METAR-TAF: